[[{"header":{"parameterUnit":"m.s-1","parameterCategory":1,"la1":30.2991,"la2":30.254,"lo1":-89.0895,"lo2":-89.0444,"dy":0.0017,"dx":0.0017,"nx":28,"ny":28,"refTime":"2024-05-06T03:00:00:Z","depth":0,"parameterNumber":2,"parameterNumberName":"U-component_of_WINDS"},"data":[0,0,0,0,0,0,0,0,0,0,0,0,0,0,0,0,0,0,0,0,0,0,0,0,0,0,0,0,0,0,0,0,0,0,0,0,0,0,0,0,0,0,0,0,0,0,0,0,0,0,0,0,0,0,0,0,0,0,-2.0154,-2.0155,0,-2.0249,-2.025,-2.0251,-2.0262,-2.0261,-2.026,-2.0259,-2.0358,-2.0361,-2.0364,0,0,0,0,0,0,0,0,0,0,0,0,0,-1.9986,-1.9989,-2.0154,-2.0155,-2.0156,-2.0249,-2.025,-2.0251,-2.0262,-2.0261,-2.0259,-2.0258,-2.0356,-2.0361,-2.0365,0,0,0,0,0,0,0,0,0,0,0,0,0,-2.0067,-1.999,-2.0154,-2.0173,-2.0175,-2.0248,-2.025,-2.0252,-2.0262,-2.0261,-2.0259,-2.0258,-2.0355,-2.036,-2.0365,-2.0427,0,0,-2.0381,-2.0384,0,0,0,0,0,0,0,0,-2.0063,-2.0074,-2.0169,-2.0172,-2.0175,-2.0242,-2.0227,-2.031,-2.0262,-2.0229,-2.0259,-2.0257,-2.032,-2.0328,-2.0349,-2.0431,-2.0436,-2.0382,-2.0385,-2.0387,-2.0389,0,0,0,0,0,0,0,-2.0057,-2.007,-2.0192,-2.017,-2.0174,-2.0178,-2.0188,-2.0243,-2.0282,-2.0232,-2.0233,-2.0244,-2.0322,-2.0344,-2.0352,-2.0437,-2.0382,-2.0387,-2.039,-2.0392,-2.0577,-2.0578,0,0,0,0,0,0,-2.0047,-2.0065,-2.0189,-2.0194,-2.0114,-2.0182,-2.0193,-2.0222,-2.0281,-2.0289,-2.0245,-2.0244,-2.0336,-2.0346,-2.0355,-2.0432,-2.0387,-2.0392,-2.0395,-2.0575,-2.0577,-2.0579,0,0,0,0,0,0,-2.0044,-2.0058,-2.0185,-2.013,-2.0146,-2.0186,-2.0218,-2.0224,-2.0247,-2.0291,-2.0298,-2.0261,-2.0335,-2.0348,-2.0409,-2.0436,-2.0395,-2.04,-2.0573,-2.0576,-2.0578,-2.0586,0,0,0,0,0,0,-2.0039,-2.0057,-2.008,-2.013,-2.0149,-2.0236,-2.022,-2.0227,-2.0256,-2.0255,-2.0308,-2.0315,-2.0335,-2.0401,-2.0415,-2.0442,-2.0404,-2.0571,-2.0574,-2.0577,-2.0583,-2.0588,-2.0593,0,0,0,0,0,-2.0033,-2.0078,-2.0081,-2.0096,-2.0178,-2.0238,-2.0249,-2.027,-2.0258,-2.0282,-2.0311,-2.0313,-2.0431,-2.0408,-2.0422,-2.0452,-2.0569,-2.0573,-2.0577,-2.0581,-2.0587,-2.0592,0,0,0,0,0,0,-2.003,-2.0085,-2.0089,-2.0151,-2.019,-2.0239,-2.027,-2.0276,-2.0319,-2.0317,-2.0342,-2.0354,-2.0415,-2.044,-2.0413,-2.0516,-2.0499,-2.0506,-2.0497,-2.0503,-2.0508,-2.05,-2.0408,0,0,0,0,0,-2.0036,-2.0079,-2.0125,-2.0177,-2.0196,-2.023,-2.0256,-2.027,-2.0311,-2.0327,-2.036,-2.04,-2.0447,-2.0476,-2.0521,-2.0587,-2.06,-2.0615,-2.062,-2.0624,-2.0629,-2.0668,-2.0676,-2.0592,-2.0592,-2.0592,0,0,-2.0051,-2.0086,-2.0111,-2.0177,-2.0208,-2.0253,-2.0243,-2.029,-2.0324,-2.0334,-2.0394,-2.042,-2.0467,-2.0532,-2.0562,-2.0554,-2.0655,-2.0629,-2.0631,-2.0635,-2.0673,-2.068,-2.0687,-2.0594,-2.0594,-2.0593,0,0,-2.0099,-2.013,-2.0176,-2.0208,-2.0256,-2.0278,-2.029,-2.0339,-2.0356,-2.0417,-2.0426,-2.0468,-2.0546,-2.058,-2.0607,-2.0671,-2.0675,-2.0685,-2.0709,-2.0746,-2.0752,-2.0758,-2.0782,-2.079,-2.069,-2.069,-2.069,0,-2.0111,-2.0177,-2.02,-2.0247,-2.0276,-2.0288,-2.0336,-2.0366,-2.0426,-2.0447,-2.0438,-2.0538,-2.057,-2.0643,-2.0659,-2.0681,-2.0695,-2.0678,-2.075,-2.0756,-2.0762,-2.0785,-2.0793,-2.0691,-2.0691,-2.0691,-2.0691,0,-2.019,-2.0237,-2.0269,-2.0326,-2.0359,-2.0407,-2.0438,-2.0469,-2.048,-2.0504,-2.0567,-2.0606,-2.066,-2.0679,-2.069,-2.0754,-2.0748,-2.0744,-2.0727,-2.077,-2.0792,-2.0801,-2.0693,-2.0692,-2.0692,-2.0692,0,0,-2.0238,-2.0308,-2.032,-2.0347,-2.0401,-2.0438,-2.0487,-2.054,-2.0566,-2.0608,-2.065,-2.0718,-2.0715,-2.0746,-2.0762,-2.0794,-2.0844,-2.0787,-2.0788,-2.0796,-2.0918,-2.092,-2.093,-2.0847,-2.0849,-2.085,-2.0914,0,-2.0293,-2.038,-2.0402,-2.0477,-2.0521,-2.0533,-2.0576,-2.0615,-2.0639,-2.0681,-2.0709,-2.0756,-2.0748,-2.0767,-2.08,-2.083,-2.0868,-2.0826,-2.0888,-2.089,-2.0875,-2.0941,-2.0944,-2.1002,-2.0923,-2.0924,-2.0925,0,-2.0369,-2.0412,-2.049,-2.0541,-2.056,-2.0598,-2.0649,-2.0688,-2.0733,-2.0749,-2.0784,-2.0797,-2.0851,-2.0832,-2.0906,-2.0877,-2.0904,-2.0923,-2.0926,-2.0932,-2.091,-2.095,-2.1021,-2.103,-2.0939,-2.0938,-2.0937,0,-2.0397,-2.0475,-2.0532,-2.0555,-2.0614,-2.0641,-2.0667,-2.0711,-2.0741,-2.0786,-2.0807,-2.0857,-2.0885,-2.0924,-2.0951,-2.0935,-2.1024,-2.1007,-2.1039,-2.1039,-2.1057,-2.1055,-2.1133,-2.1074,-2.1074,-2.1074,-2.1074,0,-2.0456,-2.0504,-2.0546,-2.0581,-2.0635,-2.0662,-2.0715,-2.0742,-2.0781,-2.0823,-2.0837,-2.0876,-2.091,-2.0954,-2.0975,-2.1034,-2.1047,-2.1061,-2.1066,-2.106,-2.1058,-2.1078,-2.1074,-2.1076,-2.1076,-2.1075,-2.1075,0,-2.0496,-2.0526,-2.059,-2.0641,-2.0655,-2.0693,-2.0738,-2.0774,-2.0799,-2.0852,-2.0866,-2.0906,-2.0959,-2.099,-2.1056,-2.1071,-2.1136,-2.114,-2.1121,-2.1123,-2.1154,-2.1151,-2.1247,-2.1262,-2.1193,-2.1193,-2.1194,0,-2.0532,-2.0569,-2.0625,-2.0654,-2.068,-2.0726,-2.0758,-2.0786,-2.0818,-2.0873,-2.0903,-2.0956,-2.1,-2.1085,-2.112,-2.1172,-2.1177,-2.1207,-2.1184,-2.1177,-2.1178,-2.1175,-2.1179,-2.1211,-2.1211,-2.1212,-2.1212,0,-2.0593,-2.0606,-2.0651,-2.0701,-2.0738,-2.0779,-2.082,-2.0843,-2.0878,-2.0914,-2.0968,-2.1002,-2.1071,-2.1124,-2.1179,-2.1207,-2.1216,-2.1219,-2.1229,-2.1223,-2.1211,-2.1219,-2.1132,-2.1217,-2.1216,-2.1216,-2.1216,-2.1215,-2.0633,-2.0667,-2.0712,-2.0761,-2.0795,-2.0833,-2.0869,-2.0899,-2.0945,-2.1002,-2.1016,-2.1073,-2.1119,-2.1194,-2.1223,-2.1269,-2.1264,-2.1279,-2.1283,-2.1286,-2.1287,-2.1204,-2.1279,-2.1279,-2.1279,-2.1279,-2.1279,0,-2.0695,-2.0725,-2.077,-2.0827,-2.0866,-2.0871,-2.0916,-2.0949,-2.0999,-2.1041,-2.1084,-2.1147,-2.12,-2.124,-2.1294,-2.1323,-2.1329,-2.1336,-2.1334,-2.1341,-2.1288,-2.1274,-2.1331,-2.1331,-2.1331,-2.1331,-2.1331,-2.1331,-2.0732,-2.079,-2.0809,-2.0885,-2.0915,-2.097,-2.0996,-2.1032,-2.1065,-2.1135,-2.1178,-2.1204,-2.1246,-2.1303,-2.1352,-2.1362,-2.1382,-2.1389,-2.14,-2.135,-2.1345,-2.1339,-2.1326,-2.1393,-2.1393,-2.145,-2.145,-2.145]},{"header":{"parameterUnit":"m.s-1","parameterCategory":1,"la1":30.2991,"la2":30.254,"lo1":-89.0895,"lo2":-89.0444,"dy":0.0017,"dx":0.0017,"nx":28,"ny":28,"refTime":"2024-05-06T03:00:00:Z","depth":0,"parameterNumber":3,"parameterNumberName":"V-component_of_WINDS"},"data":[0,0,0,0,0,0,0,0,0,0,0,0,0,0,0,0,0,0,0,0,0,0,0,0,0,0,0,0,0,0,0,0,0,0,0,0,0,0,0,0,0,0,0,0,0,0,0,0,0,0,0,0,0,0,0,0,0,0,4.7136,4.7135,0,4.7123,4.7123,4.7123,4.7129,4.7129,4.713,4.713,4.7116,4.7116,4.7115,0,0,0,0,0,0,0,0,0,0,0,0,0,4.7167,4.7166,4.7136,4.7135,4.7135,4.7123,4.7123,4.7123,4.7129,4.7129,4.713,4.713,4.7117,4.7116,4.7115,0,0,0,0,0,0,0,0,0,0,0,0,0,4.7154,4.7166,4.7136,4.7137,4.7137,4.7123,4.7123,4.7123,4.7129,4.7129,4.713,4.713,4.7117,4.7116,4.7115,4.7099,0,0,4.7112,4.7111,0,0,0,0,0,0,0,0,4.7154,4.7152,4.7137,4.7137,4.7137,4.7128,4.7129,4.7115,4.7129,4.7132,4.713,4.7131,4.712,4.7119,4.7115,4.7098,4.7098,4.7112,4.7111,4.7111,4.711,0,0,0,0,0,0,0,4.7155,4.7153,4.7131,4.7137,4.7137,4.7139,4.7137,4.7126,4.7123,4.7132,4.7132,4.7131,4.712,4.7116,4.7115,4.7097,4.7112,4.7111,4.711,4.711,4.7071,4.707,0,0,0,0,0,0,4.7156,4.7154,4.7131,4.713,4.7147,4.7138,4.7136,4.713,4.7123,4.7123,4.713,4.7131,4.7118,4.7116,4.7114,4.7097,4.7111,4.711,4.7109,4.7071,4.707,4.707,0,0,0,0,0,0,4.7157,4.7154,4.7131,4.7142,4.7139,4.7137,4.713,4.713,4.7126,4.7122,4.7122,4.7127,4.7118,4.7116,4.7104,4.7097,4.7109,4.7108,4.7072,4.7071,4.707,4.7061,0,0,0,0,0,0,4.7157,4.7154,4.7147,4.7142,4.7139,4.712,4.713,4.7129,4.7124,4.7125,4.7119,4.7118,4.7118,4.7105,4.7103,4.7096,4.7108,4.7072,4.7071,4.707,4.7062,4.706,4.7059,0,0,0,0,0,4.7159,4.7144,4.7147,4.7144,4.713,4.7119,4.7118,4.7118,4.7124,4.7117,4.7116,4.7118,4.7098,4.7104,4.7101,4.7093,4.7072,4.7071,4.707,4.7063,4.7061,4.7059,0,0,0,0,0,0,4.7147,4.7143,4.7146,4.7129,4.7125,4.7121,4.7112,4.7115,4.7109,4.711,4.711,4.7109,4.7097,4.7094,4.71,4.708,4.7086,4.7085,4.7081,4.7079,4.7078,4.7078,4.7107,0,0,0,0,0,4.7143,4.7134,4.7132,4.7117,4.7115,4.7114,4.7109,4.7111,4.7106,4.7104,4.7101,4.7096,4.7089,4.7084,4.7077,4.7062,4.7062,4.7056,4.7055,4.7053,4.7052,4.7047,4.7044,4.7067,4.7067,4.7067,0,0,4.7133,4.713,4.7125,4.7115,4.7112,4.7104,4.7112,4.7103,4.7097,4.7102,4.7091,4.7089,4.7084,4.7071,4.7065,4.7069,4.7046,4.7052,4.7051,4.705,4.7045,4.7043,4.7041,4.7066,4.7066,4.7066,0,0,4.7112,4.7109,4.7098,4.7095,4.709,4.7091,4.7088,4.7084,4.7084,4.7073,4.7077,4.7071,4.7058,4.7055,4.7052,4.7035,4.7038,4.7033,4.7024,4.7019,4.7017,4.7016,4.7011,4.7009,4.7032,4.7032,4.7032,0,4.7101,4.7089,4.7091,4.7082,4.7079,4.7085,4.7075,4.7072,4.7065,4.7063,4.7067,4.7054,4.7051,4.7039,4.7035,4.7032,4.703,4.7033,4.7017,4.7016,4.7014,4.701,4.7008,4.7031,4.7031,4.7031,4.7031,0,4.7076,4.7068,4.706,4.7055,4.7051,4.7041,4.7043,4.7039,4.7042,4.7042,4.7032,4.703,4.7024,4.7021,4.7023,4.701,4.7013,4.7017,4.7024,4.7012,4.7008,4.7006,4.703,4.703,4.7031,4.7031,0,0,4.7044,4.7044,4.7041,4.704,4.7037,4.7031,4.7024,4.7019,4.7016,4.7012,4.7006,4.6998,4.7003,4.6999,4.7001,4.6997,4.6986,4.7002,4.7002,4.7,4.6975,4.6971,4.6969,4.6989,4.6989,4.6988,4.6976,0,4.7024,4.701,4.7014,4.7,4.6994,4.7002,4.6995,4.6994,4.6995,4.6991,4.6992,4.6986,4.6993,4.6991,4.6987,4.6988,4.6981,4.6989,4.6984,4.6984,4.6985,4.6967,4.6963,4.695,4.6974,4.6973,4.6973,0,4.6997,4.6994,4.698,4.6982,4.698,4.6974,4.6971,4.6967,4.6967,4.6968,4.6966,4.697,4.6965,4.6973,4.6965,4.6971,4.697,4.697,4.697,4.6969,4.6977,4.6966,4.6946,4.6945,4.6971,4.6971,4.6971,0,4.6977,4.697,4.6961,4.696,4.6961,4.6958,4.6958,4.6958,4.6956,4.6955,4.6954,4.6951,4.695,4.6949,4.6953,4.6958,4.6946,4.6953,4.6948,4.6948,4.6944,4.6944,4.6924,4.6943,4.6943,4.6943,4.6943,0,4.6954,4.6945,4.6953,4.6947,4.6939,4.6945,4.6936,4.6938,4.6939,4.6935,4.6942,4.6938,4.6944,4.6941,4.6945,4.694,4.6939,4.6941,4.6942,4.694,4.694,4.6939,4.694,4.6943,4.6943,4.6943,4.6943,0,4.6929,4.6933,4.6925,4.6928,4.6929,4.6923,4.6926,4.6922,4.6925,4.6921,4.692,4.6925,4.6922,4.6927,4.6925,4.6928,4.6921,4.6923,4.6921,4.6921,4.6916,4.6917,4.6894,4.6892,4.6912,4.6912,4.6912,0,4.6913,4.6907,4.6911,4.6909,4.691,4.6906,4.6905,4.6912,4.6911,4.6912,4.6908,4.6907,4.6906,4.6903,4.6907,4.6906,4.6909,4.6901,4.6909,4.6908,4.691,4.691,4.6911,4.6899,4.6899,4.6899,4.6899,0,4.6886,4.6889,4.6887,4.6887,4.6886,4.6886,4.6886,4.6885,4.6892,4.6891,4.6889,4.6889,4.6889,4.6888,4.6889,4.6891,4.6896,4.6897,4.6896,4.6893,4.6893,4.6894,4.6917,4.6897,4.6897,4.6897,4.6897,4.6897,4.6865,4.6862,4.6865,4.6863,4.6865,4.6866,4.6863,4.6867,4.6866,4.6867,4.6871,4.687,4.6873,4.6875,4.6877,4.6876,4.688,4.6878,4.6877,4.6877,4.6876,4.6894,4.6877,4.6877,4.6877,4.6877,4.6877,0,4.6839,4.6843,4.6841,4.6843,4.6842,4.6849,4.6851,4.6851,4.6849,4.6852,4.6852,4.6852,4.6852,4.6858,4.6859,4.6858,4.6861,4.6858,4.6858,4.6859,4.6872,4.6874,4.6856,4.6856,4.6856,4.6856,4.6856,4.6856,4.6826,4.682,4.6825,4.6821,4.6825,4.6823,4.6824,4.6826,4.6829,4.6829,4.683,4.6833,4.6838,4.6841,4.6842,4.6844,4.6844,4.6841,4.6844,4.6856,4.6858,4.686,4.6861,4.6841,4.6841,4.683,4.683,4.683]}]]